When you browse on this site, cookies collect data to enhance your experience and personalize the content and advertising you see.
Visit our Privacy Policy to learn more. By continuing to use the site, you agree to this use of cookies and data.
  • In Schweiz
  • Länderverzeichnis
  • Für 7 Tage
  • Wassertemperatur
  • Satellitenkarten
  • Wetterkarte
  • Widgets
  • user-avatar
    Anmelden

    Stündliche Wetter Quito

    Heute, 23 März, Samstag

    Zeit Temperatur Niederschläge Wind Luftdruck Luftfeuchtigkeit
    00:00 +18°C° 0.2 mm 1 m/S 621 mmHg 89%
    01:00 +18°C° 0.2 mm 1 m/S 621 mmHg 92%
    02:00 +16°C° 0 mm 1 m/S 621 mmHg 92%
    03:00 +16°C° 0 mm 1 m/S 621 mmHg 91%
    04:00 +16°C° 0 mm 1 m/S 621 mmHg 91%
    05:00 +16°C° 0 mm 0 m/S 621 mmHg 89%
    06:00 +17°C° 0 mm 0 m/S 622 mmHg 87%
    07:00 +17°C° 0 mm 0 m/S 622 mmHg 85%
    08:00 +22°C° 0 mm 1 m/S 623 mmHg 74%
    09:00 +24°C° 0 mm 2 m/S 624 mmHg 63%
    10:00 +27°C° 0 mm 3 m/S 625 mmHg 51%
    11:00 +27°C° 0 mm 4 m/S 624 mmHg 50%
    12:00 +28°C° 0 mm 4 m/S 624 mmHg 50%
    13:00 +28°C° 0 mm 4 m/S 624 mmHg 49%
    14:00 +28°C° 0 mm 3 m/S 623 mmHg 52%
    15:00 +28°C° 0 mm 2 m/S 623 mmHg 55%
    16:00 +28°C° 0 mm 2 m/S 623 mmHg 59%
    17:00 +26°C° 0 mm 1 m/S 622 mmHg 62%
    18:00 +24°C° 0 mm 1 m/S 622 mmHg 65%
    19:00 +20°C° 0 mm 0 m/S 621 mmHg 68%
    20:00 +20°C° 0 mm 0 m/S 621 mmHg 69%
    21:00 +19°C° 0 mm 0 m/S 622 mmHg 70%
    22:00 +18°C° 0 mm 0 m/S 622 mmHg 71%
    23:00 +18°C° 0 mm 0 m/S 622 mmHg 73%

    Morgen, 24 März, Sonntag

    Zeit Temperatur Niederschläge Wind Luftdruck Luftfeuchtigkeit
    00:00 +20°C° 0 mm 1 m/S 622 mmHg 76%
    01:00 +19°C° 0 mm 1 m/S 622 mmHg 78%
    02:00 +19°C° 0 mm 1 m/S 622 mmHg 79%
    03:00 +19°C° 0 mm 1 m/S 621 mmHg 80%
    04:00 +18°C° 0 mm 1 m/S 621 mmHg 81%
    05:00 +19°C° 0 mm 1 m/S 622 mmHg 81%
    06:00 +19°C° 0 mm 1 m/S 622 mmHg 82%
    07:00 +19°C° 0 mm 1 m/S 623 mmHg 82%
    08:00 +22°C° 0 mm 1 m/S 623 mmHg 73%
    09:00 +24°C° 0 mm 2 m/S 624 mmHg 65%
    10:00 +26°C° 0 mm 2 m/S 625 mmHg 56%
    11:00 +27°C° 0 mm 3 m/S 624 mmHg 54%
    12:00 +27°C° 0 mm 3 m/S 624 mmHg 51%
    13:00 +28°C° 0 mm 4 m/S 623 mmHg 48%
    14:00 +28°C° 0 mm 3 m/S 623 mmHg 51%
    15:00 +27°C° 0 mm 3 m/S 622 mmHg 54%
    16:00 +27°C° 0 mm 2 m/S 622 mmHg 56%
    17:00 +25°C° 0 mm 2 m/S 622 mmHg 60%
    18:00 +24°C° 0 mm 1 m/S 622 mmHg 64%
    19:00 +22°C° 0 mm 1 m/S 622 mmHg 69%
    20:00 +22°C° 0 mm 1 m/S 622 mmHg 69%
    21:00 +20°C° 0 mm 0 m/S 623 mmHg 69%
    22:00 +20°C° 0 mm 0 m/S 623 mmHg 69%
    23:00 +19°C° 0 mm 0 m/S 623 mmHg 71%

    übermorgen, 25 März, Montag

    Zeit Temperatur Niederschläge Wind Luftdruck Luftfeuchtigkeit
    00:00 +19°C° 0 mm 0 m/S 622 mmHg 72%
    01:00 +20°C° 0 mm 1 m/S 622 mmHg 74%
    02:00 +17°C° 0 mm 0 m/S 622 mmHg 76%
    03:00 +17°C° 0 mm 0 m/S 621 mmHg 78%
    04:00 +16°C° 0 mm 0 m/S 621 mmHg 80%
    05:00 +17°C° 0 mm 0 m/S 621 mmHg 80%
    06:00 +17°C° 0 mm 0 m/S 622 mmHg 80%
    07:00 +17°C° 0 mm 0 m/S 622 mmHg 80%
    08:00 +22°C° 0 mm 1 m/S 623 mmHg 71%
    09:00 +24°C° 0 mm 1 m/S 624 mmHg 63%
    10:00 +26°C° 0 mm 1 m/S 625 mmHg 54%
    11:00 +27°C° 0 mm 2 m/S 625 mmHg 51%
    12:00 +27°C° 0 mm 3 m/S 624 mmHg 48%
    13:00 +28°C° 0 mm 4 m/S 623 mmHg 45%
    14:00 +27°C° 0.3 mm 3 m/S 622 mmHg 52%
    15:00 +26°C° 0.3 mm 3 m/S 622 mmHg 60%
    16:00 +25°C° 0.3 mm 3 m/S 621 mmHg 67%
    17:00 +23°C° 0.3 mm 2 m/S 621 mmHg 72%
    18:00 +21°C° 0.3 mm 1 m/S 621 mmHg 77%
    19:00 +19°C° 0.3 mm 1 m/S 621 mmHg 82%
    20:00 +19°C° 0 mm 1 m/S 621 mmHg 81%
    21:00 +19°C° 0 mm 1 m/S 622 mmHg 80%
    22:00 +17°C° 0 mm 0 m/S 622 mmHg 79%
    23:00 +16°C° 0 mm 0 m/S 622 mmHg 79%

    26 März, Dienstag

    Zeit Temperatur Niederschläge Wind Luftdruck Luftfeuchtigkeit
    00:00 +16°C° 0 mm 0 m/S 622 mmHg 80%
    01:00 +16°C° 0 mm 0 m/S 621 mmHg 80%
    02:00 +16°C° 0 mm 0 m/S 621 mmHg 81%
    03:00 +18°C° 0 mm 1 m/S 621 mmHg 82%
    04:00 +18°C° 0 mm 1 m/S 621 mmHg 83%
    05:00 +18°C° 0 mm 1 m/S 621 mmHg 83%
    06:00 +19°C° 0 mm 1 m/S 622 mmHg 84%
    07:00 +19°C° 0 mm 1 m/S 622 mmHg 84%
    08:00 +21°C° 0 mm 1 m/S 623 mmHg 75%
    09:00 +24°C° 0 mm 2 m/S 624 mmHg 66%
    10:00 +26°C° 0 mm 2 m/S 625 mmHg 57%
    11:00 +27°C° 0 mm 2 m/S 625 mmHg 55%
    12:00 +27°C° 0 mm 3 m/S 624 mmHg 52%
    13:00 +28°C° 0 mm 3 m/S 623 mmHg 50%
    14:00 +27°C° 0.6 mm 3 m/S 623 mmHg 54%
    15:00 +27°C° 0.6 mm 2 m/S 622 mmHg 58%
    16:00 +26°C° 0.6 mm 2 m/S 622 mmHg 63%
    17:00 +24°C° 0.4 mm 2 m/S 622 mmHg 70%
    18:00 +21°C° 0.4 mm 2 m/S 622 mmHg 77%
    19:00 +19°C° 0.4 mm 2 m/S 622 mmHg 84%
    20:00 +18°C° 0.4 mm 2 m/S 622 mmHg 85%
    21:00 +18°C° 0.4 mm 2 m/S 622 mmHg 86%
    22:00 +17°C° 0.4 mm 2 m/S 623 mmHg 87%
    23:00 +18°C° 0 mm 1 m/S 622 mmHg 89%

    27 März, Mittwoch

    Zeit Temperatur Niederschläge Wind Luftdruck Luftfeuchtigkeit
    00:00 +16°C° 0 mm 1 m/S 622 mmHg 90%
    01:00 +16°C° 0 mm 1 m/S 622 mmHg 91%
    02:00 +16°C° 0 mm 1 m/S 622 mmHg 92%
    03:00 +15°C° 0 mm 0 m/S 622 mmHg 93%
    04:00 +14°C° 0 mm 0 m/S 621 mmHg 93%
    05:00 +15°C° 0 mm 0 m/S 622 mmHg 91%
    06:00 +16°C° 0 mm 0 m/S 623 mmHg 89%
    07:00 +19°C° 0 mm 1 m/S 624 mmHg 87%
    08:00 +20°C° 0 mm 1 m/S 624 mmHg 81%
    09:00 +22°C° 0 mm 1 m/S 625 mmHg 75%
    10:00 +24°C° 0 mm 1 m/S 626 mmHg 69%
    11:00 +25°C° 0.5 mm 1 m/S 625 mmHg 62%
    12:00 +27°C° 0.5 mm 1 m/S 625 mmHg 55%
    13:00 +28°C° 0.5 mm 2 m/S 625 mmHg 49%
    14:00 +28°C° 0.1 mm 2 m/S 625 mmHg 51%
    15:00 +27°C° 0.1 mm 2 m/S 624 mmHg 53%
    16:00 +27°C° 0.1 mm 2 m/S 624 mmHg 55%
    17:00 +25°C° 0.5 mm 1 m/S 624 mmHg 63%
    18:00 +23°C° 0.5 mm 1 m/S 623 mmHg 71%
    19:00 +18°C° 0.5 mm 0 m/S 623 mmHg 79%
    20:00 +20°C° 1.3 mm 1 m/S 623 mmHg 82%
    21:00 +20°C° 1.3 mm 1 m/S 624 mmHg 84%
    22:00 +19°C° 1.3 mm 1 m/S 624 mmHg 87%
    23:00 +19°C° 0.8 mm 1 m/S 624 mmHg 90%

    28 März, Donnerstag

    Zeit Temperatur Niederschläge Wind Luftdruck Luftfeuchtigkeit
    00:00 +18°C° 0.8 mm 1 m/S 624 mmHg 92%
    01:00 +18°C° 0.8 mm 1 m/S 623 mmHg 94%
    02:00 +18°C° 0.9 mm 1 m/S 623 mmHg 94%
    03:00 +18°C° 0.9 mm 1 m/S 623 mmHg 95%
    04:00 +16°C° 0.9 mm 0 m/S 623 mmHg 95%
    05:00 +16°C° 0 mm 0 m/S 623 mmHg 94%
    06:00 +17°C° 0 mm 0 m/S 624 mmHg 92%
    07:00 +17°C° 0 mm 0 m/S 624 mmHg 90%
    08:00 +21°C° 0 mm 1 m/S 625 mmHg 81%
    09:00 +23°C° 0 mm 1 m/S 625 mmHg 73%
    10:00 +25°C° 0 mm 2 m/S 626 mmHg 64%
    11:00 +26°C° 0 mm 2 m/S 625 mmHg 61%
    12:00 +27°C° 0 mm 3 m/S 625 mmHg 59%
    13:00 +27°C° 0 mm 3 m/S 624 mmHg 57%
    14:00 +27°C° 0.7 mm 3 m/S 624 mmHg 61%
    15:00 +26°C° 0.7 mm 2 m/S 623 mmHg 66%
    16:00 +26°C° 0.7 mm 2 m/S 623 mmHg 70%
    17:00 +24°C° 0.9 mm 2 m/S 623 mmHg 76%
    18:00 +22°C° 0.9 mm 1 m/S 623 mmHg 81%
    19:00 +20°C° 0.9 mm 1 m/S 623 mmHg 86%
    20:00 +20°C° 0.8 mm 1 m/S 623 mmHg 88%
    21:00 +17°C° 0.8 mm 0 m/S 623 mmHg 89%
    22:00 +17°C° 0.8 mm 0 m/S 623 mmHg 90%
    23:00 +17°C° 0.3 mm 0 m/S 623 mmHg 91%
    Mehr zeigen